Regional Weather Roundup
Issued by NWS Upton, NY

Current Version | Previous Version | Graphics & Text | Print | Product List | Glossary Off
Versions: 1 2 3 4 5 6 7 8 9 10 11 12 13 14 15 16 17 18 19 20 21 22 23 24 25 26

000
ASUS41 KOKX 221805
RWROKX

REGIONAL WEATHER ROUNDUP
NATIONAL WEATHER SERVICE NEW YORK NY
200 PM EDT TUE APR 22 2014

NOTE: "FAIR" INDICATES FEW OR NO CLOUDS BELOW 12,000 FEET WITH NO
SIGNIFICANT WEATHER AND/OR OBSTRUCTIONS TO VISIBILITY.

NYZ071-072-176-178-NJZ106-104-221900-
NEW YORK CITY METRO AREA


CITY           SKY/WX    TMP DP  RH WIND       PRES   REMARKS
CENTRAL PARK   MOSUNNY   69  46  43 S9        29.62F
LAGUARDIA APRT PTSUNNY   64  45  49 S12       29.60F
KENNEDY INTL   PTSUNNY   60  46  59 S22       29.63F
NEWARK/LIBERTY PTSUNNY   73  44  35 SW10G21   29.58F
TETERBORO      MOSUNNY   71  45  39 S10G18    29.58F
$$

NYZ177-179-078>081-221900-
LONG ISLAND NEW YORK

CITY           SKY/WX    TMP DP  RH WIND       PRES   REMARKS
FARMINGDALE    PTSUNNY   60  48  64 S18       29.63F
ISLIP          CLOUDY    59  47  64 S12G21    29.62F
SHIRLEY        PTSUNNY   59  48  67 SW16      29.65F
WESTHAMPTON    PTSUNNY   59  46  62 SW12G22   29.66F
MONTAUK POINT    N/A     56  47  71 S9G18     29.66F
$$

NYZ052-065-067-221900-
HUDSON VALLEY

CITY           SKY/WX    TMP DP  RH WIND       PRES   REMARKS
WHITE PLAINS   MOSUNNY   65  45  48 S7G16     29.59F
NEWBURGH       CLOUDY    72  45  37 S9        29.57F
MONTGOMERY     CLOUDY    72  41  32 S15       29.54S
POUGHKEEPSIE   PTSUNNY   73  43  33 S10G17    29.54F
ALBANY         CLOUDY    69  37  30 SW12      29.54F
$$

NJZ001-105-106-008-010-013-015-019>022-104-221900-
NEW JERSEY

CITY           SKY/WX    TMP DP  RH WIND       PRES   REMARKS
NEWARK/LIBERTY PTSUNNY   73  44  35 SW10G21   29.58F
TETERBORO      MOSUNNY   71  45  39 S10G18    29.58F
CALDWELL       MOSUNNY   70  44  39 VRB7      29.59F
MORRISTOWN     CLOUDY    70  45  40 SW7       29.59F
SOMERVILLE     PTSUNNY   72  45  37 SE9       29.56F
LINDEN         FAIR      74  44  33 W7        29.60F
SUSSEX         CLOUDY    70  42  36 SW7       29.57F
ANDOVER          N/A     68  44  42 SW7       29.59F
TRENTON        MOSUNNY   72  44  36 SW10G18   29.59F
MILLVILLE      MOSUNNY   72  47  40 VRB5      29.62F
ATLANTIC CITY  MOSUNNY   67  48  50 S14       29.62F
WRIGHTSTOWN    PTSUNNY   76  43  30 SW12G18   29.57F
TOMS RIVER     MOSUNNY   75  46  35 S9        29.60F
BELMAR         MOSUNNY   70  50  49 SE12      29.60F
$$

PAZ047>061-062-071-221900-
EASTERN PENNSYLVANIA

CITY           SKY/WX    TMP DP  RH WIND       PRES   REMARKS
PHILADELPHIA   PTSUNNY   73  45  36 W12       29.62F
ALLENTOWN      LGT RAIN  67  46  47 W9        29.61F
SCRANTON       LGT RAIN  59  46  62 SW9G20    29.60F
$$

CTZ002-004>006-009-010-012-RIZ004-006-007-MAZ004-011-015-221900-
SOUTHERN NEW ENGLAND
 IN CT

CITY           SKY/WX    TMP DP  RH WIND       PRES   REMARKS
BRADLEY INTL   CLOUDY    68  43  40 S13G24    29.56F
HARTFORD       CLOUDY    68  43  40 S10G21    29.57F
DANBURY        MOSUNNY   68  45  43 VRB6G16   29.59F
WTRBRY/OXFORD  PTSUNNY   66  45  45 SW12G18   29.61F
BRIDGEPORT     PTSUNNY   64  46  52 S10       29.61F
MERIDEN        CLOUDY    67  43  41 S17G25    29.59F
NEW HAVEN      PTSUNNY   63  46  54 SE10      29.61F
CHESTER        FAIR      63  43  48 S14G22    29.62S
GROTON         MOSUNNY   56  47  71 S12       29.62F
WILLIMANTIC    PTSUNNY   69  41  36 S16G23    29.58F

 IN RI

CITY           SKY/WX    TMP DP  RH WIND       PRES   REMARKS
PROVIDENCE     PTSUNNY   66  44  45 S13       29.60F
BLOCK ISLAND   MOSUNNY   55  45  67 SW17G23   29.65F
WESTERLY       MOSUNNY   57  45  64 S16       29.64F

 IN MA

CITY           SKY/WX    TMP DP  RH WIND       PRES   REMARKS
BOSTON         PTSUNNY   71  40  32 S15       29.55F
WORCESTER      PTSUNNY   70  35  27 SW16G23   29.56F
WESTFIELD      CLOUDY    70  43  37 SE13      29.55F
PROVINCETOWN   CLOUDY    57  45  62 MISG      29.63F
NANTUCKET      PTSUNNY   56  45  66 SW10      29.67F
$$

ANZ330-335-338-340-345-350-353-355-221900-
COASTAL MARINE OBSERVATIONS


STATION/POSITION TIME  SKY/WX   TEMP    WIND        PRES    VSBY  WAVE
                                AIR SEA DIR/SP/G                  HT/PER
                 (UTC)          (F)     (DEG/KT/KT) (MB)    (MI)  (FT/S)
NY HARB ENTRANCE 1800            49 47  VRB 17/ 19  1002.7
4S FIRE IS       1700               48                N/A           4/ 8
23SW MTP         1800            47 44  210/ 10/ 10 1004.2          4/ 8
HUDSON CANYON    1700            49 47  180/  8/  8 1005.6          4/ 8
EXECUTION ROCKS  1800            58 47  220/ 10/ 12   N/A
WESTERN LI SOUND 1800            57     220/  8/ 10   N/A           0
CENTRAL LI SOUND 1700            49 47  120/  6/  6   N/A           0
EASTERN LI SOUND NOT AVBL
ROBBINS REEF     1800            56     170/ 15/ 17   N/A
$$


>>>>>>>>>>>>>>>>>>>>>>>>>>>> KEY <<<<<<<<<<<<<<<<<<<<<<<<<<<
>                                                          <
>     SKY/WX - SKY CONDITION/PRESENT WEATHER               <
>     TMP    - TEMPERATURE IN FAHRENHEIT                   <
>     DP     - DEWPOINT IN FAHRENHEIT                      <
>     RH     - RELATIVE HUMIDITY IN PERCENT                <
>     WIND   - DIRECTION AND SPEED IN MPH                  <
>     PRES   - MEAN SEA LEVEL PRESSURE IN INCHES OF HG     <
>     WCI    - WIND CHILL INDEX                            <
>     VSB    - VISIBILITY IN MILES                         <
>     HX     - HEAT INDEX                                  <
>     TC     - TEMPERATURE IN CELSIUS                      <
>     VRB    - VARIABLE WIND DIRECTION                     <
>                                                          <
>>>>>>>>>>>>>>>>>>>>>>>>>>>> KEY <<<<<<<<<<<<<<<<<<<<<<<<<<<





USA.gov is the U.S. government's official web portal to all federal, state and local government web resources and services.